EZS1063 LFSB-LFKJ

Flight info

Callsign EZS1063
Flight time 0h 59m
Altitude 35000
Route OLBEN Z50 GERSA DCT SOSON DCT ODINA DCT EVANO DCT KEMMI DCT IXITO DCT UNITA DCT ERTEV/N0422F230 DCT TORTU
Aircraft A320/M-SDE3FGHIRWY/LB1

Departure

Time 2026-04-08 14:00
Airport EuroAirport Basel–Mulhouse–Freiburg (LFSB)

Arrival

Time 2026-04-08 14:59
Airport Ajaccio Napoléon Bonaparte airport (LFKJ)
Time Latitude Longitude Altitude Speed Heading
2026-04-08 13:25 47.59574 7.53068 890 ft 0 kts 155°
2026-04-08 13:52 47.59577 7.53066 890 ft 2 kts 155°
2026-04-08 13:53 47.59594 7.53054 890 ft 3 kts 155°
2026-04-08 13:53 47.59612 7.53042 890 ft 3 kts 153°
2026-04-08 13:53 47.59630 7.53028 890 ft 3 kts 154°
2026-04-08 13:53 47.59642 7.53020 890 ft 3 kts 171°
2026-04-08 13:54 47.59651 7.53016 890 ft 2 kts 240°
2026-04-08 13:54 47.59659 7.53039 890 ft 2 kts 245°
2026-04-08 13:54 47.59661 7.53048 890 ft 0 kts 245°
2026-04-08 13:56 47.59641 7.52984 890 ft 12 kts 244°
2026-04-08 13:57 47.59608 7.52882 890 ft 10 kts 244°
2026-04-08 13:57 47.59606 7.52794 890 ft 8 kts 306°
2026-04-08 13:57 47.59669 7.52742 890 ft 14 kts 334°
2026-04-08 13:57 47.59776 7.52666 890 ft 20 kts 335°
2026-04-08 13:58 47.59918 7.52570 890 ft 23 kts 336°
2026-04-08 13:58 47.60058 7.52473 890 ft 19 kts 335°
2026-04-08 13:58 47.60181 7.52389 890 ft 20 kts 333°
2026-04-08 13:58 47.60311 7.52299 886 ft 23 kts 335°
2026-04-08 13:59 47.60462 7.52193 882 ft 25 kts 334°
2026-04-08 13:59 47.60574 7.52076 881 ft 16 kts 275°
2026-04-08 13:59 47.60533 7.51927 881 ft 15 kts 246°
2026-04-08 13:59 47.60492 7.51870 882 ft 6 kts 168°
2026-04-08 14:00 47.60271 7.52032 888 ft 77 kts 155°
2026-04-08 14:00 47.59529 7.52548 888 ft 154 kts 155°
2026-04-08 14:00 47.58402 7.53327 1154 ft 191 kts 154°
2026-04-08 14:00 47.57188 7.54185 1990 ft 197 kts 154°
2026-04-08 14:01 47.55921 7.55033 2900 ft 202 kts 156°
2026-04-08 14:01 47.54664 7.55833 3749 ft 193 kts 153°
2026-04-08 14:01 47.53550 7.57063 4021 ft 211 kts 125°
2026-04-08 14:01 47.52913 7.59081 4333 ft 226 kts 107°
2026-04-08 14:02 47.52155 7.61259 4653 ft 252 kts 123°
2026-04-08 14:02 47.50898 7.63147 5241 ft 270 kts 145°
2026-04-08 14:02 47.47139 7.64067 6878 ft 283 kts 181°
2026-04-08 14:03 47.45188 7.63939 7712 ft 286 kts 182°
2026-04-08 14:03 47.43187 7.63797 8490 ft 291 kts 182°
2026-04-08 14:03 47.41149 7.63649 9308 ft 295 kts 182°
2026-04-08 14:03 47.39083 7.63504 10144 ft 299 kts 182°
2026-04-08 14:04 47.36963 7.63359 10629 ft 315 kts 182°
2026-04-08 14:04 47.34688 7.63209 10890 ft 337 kts 182°
2026-04-08 14:04 47.32306 7.63185 11422 ft 347 kts 174°
2026-04-08 14:04 47.29916 7.63855 12055 ft 353 kts 161°
2026-04-08 14:05 47.27653 7.65276 12775 ft 355 kts 149°
2026-04-08 14:05 47.25501 7.67086 13514 ft 357 kts 149°
2026-04-08 14:05 47.23325 7.68912 14139 ft 363 kts 149°
2026-04-08 14:05 47.21210 7.70959 14721 ft 366 kts 139°
2026-04-08 14:06 47.19402 7.73595 15314 ft 367 kts 127°
2026-04-08 14:06 47.18003 7.76736 15942 ft 368 kts 115°
2026-04-08 14:06 47.17040 7.80226 16564 ft 370 kts 108°
2026-04-08 14:06 47.16160 7.83792 17181 ft 373 kts 108°
2026-04-08 14:07 47.15259 7.87400 17785 ft 377 kts 108°
2026-04-08 14:07 47.14355 7.90982 18371 ft 381 kts 108°
2026-04-08 14:07 47.13477 7.94668 18900 ft 383 kts 103°
2026-04-08 14:07 47.12847 7.98483 19417 ft 386 kts 101°
2026-04-08 14:08 47.12225 8.02365 19939 ft 389 kts 101°
2026-04-08 14:08 47.11606 8.06256 20476 ft 392 kts 101°
2026-04-08 14:08 47.10980 8.10166 20962 ft 395 kts 101°
2026-04-08 14:08 47.10344 8.14114 21464 ft 398 kts 101°
2026-04-08 14:09 47.09698 8.18088 21952 ft 401 kts 101°
2026-04-08 14:09 47.09045 8.22091 22421 ft 404 kts 101°
2026-04-08 14:09 47.08389 8.26109 22920 ft 407 kts 101°
2026-04-08 14:09 47.07725 8.30164 23390 ft 410 kts 101°
2026-04-08 14:10 47.07053 8.34245 23843 ft 413 kts 101°
2026-04-08 14:10 47.06383 8.38311 24221 ft 416 kts 101°
2026-04-08 14:10 47.05687 8.42437 24604 ft 420 kts 104°
2026-04-08 14:10 47.04450 8.46332 24957 ft 427 kts 124°
2026-04-08 14:11 47.02440 8.49556 25287 ft 432 kts 140°
2026-04-08 14:11 46.99949 8.52035 25610 ft 435 kts 152°
2026-04-08 14:11 46.97111 8.53762 25981 ft 436 kts 165°
2026-04-08 14:11 46.94125 8.54580 26369 ft 436 kts 175°
2026-04-08 14:12 46.91104 8.55055 26743 ft 438 kts 175°
2026-04-08 14:12 46.88061 8.55510 27078 ft 441 kts 176°
2026-04-08 14:12 46.84997 8.55954 27459 ft 442 kts 176°
2026-04-08 14:12 46.81930 8.56388 27815 ft 445 kts 176°
2026-04-08 14:13 46.78847 8.56818 28165 ft 446 kts 176°
2026-04-08 14:13 46.75744 8.57251 28520 ft 448 kts 176°
2026-04-08 14:13 46.72637 8.57691 28841 ft 451 kts 176°
2026-04-08 14:13 46.69508 8.58138 29166 ft 453 kts 176°
2026-04-08 14:14 46.66354 8.58593 29470 ft 456 kts 176°
2026-04-08 14:14 46.60023 8.59500 30181 ft 458 kts 176°
2026-04-08 14:14 46.56877 8.59948 30456 ft 460 kts 176°
2026-04-08 14:15 46.53694 8.60403 30733 ft 462 kts 176°
2026-04-08 14:15 46.50478 8.60862 31000 ft 464 kts 176°
2026-04-08 14:15 46.47262 8.61320 31239 ft 465 kts 176°
2026-04-08 14:15 46.44039 8.61779 31474 ft 466 kts 176°
2026-04-08 14:16 46.40810 8.62237 31801 ft 466 kts 176°
2026-04-08 14:16 46.37591 8.62692 32112 ft 465 kts 176°
2026-04-08 14:16 46.34366 8.63146 32309 ft 465 kts 176°
2026-04-08 14:16 46.31153 8.63594 32594 ft 465 kts 176°
2026-04-08 14:17 46.27929 8.64043 32930 ft 464 kts 176°
2026-04-08 14:17 46.24716 8.64491 33244 ft 463 kts 176°
2026-04-08 14:17 46.21507 8.64939 33518 ft 463 kts 176°
2026-04-08 14:17 46.18313 8.65388 33908 ft 461 kts 176°
2026-04-08 14:18 46.15123 8.65837 34171 ft 461 kts 176°
2026-04-08 14:18 46.11931 8.66287 34452 ft 461 kts 176°
2026-04-08 14:18 46.08743 8.66729 34724 ft 460 kts 176°
2026-04-08 14:18 46.05551 8.67148 34938 ft 460 kts 177°
2026-04-08 14:19 46.02365 8.67550 35094 ft 459 kts 177°
2026-04-08 14:19 45.96009 8.68334 35139 ft 457 kts 177°
2026-04-08 14:20 45.89711 8.69107 35138 ft 457 kts 177°
2026-04-08 14:20 45.83359 8.69895 35123 ft 458 kts 177°
2026-04-08 14:21 45.77002 8.70701 35135 ft 457 kts 177°
2026-04-08 14:21 45.70663 8.71498 35138 ft 457 kts 177°
2026-04-08 14:22 45.64353 8.72288 35139 ft 457 kts 177°
2026-04-08 14:22 45.57979 8.73089 35138 ft 457 kts 177°
2026-04-08 14:23 45.51695 8.73854 35139 ft 456 kts 177°
2026-04-08 14:23 45.45359 8.74630 35139 ft 456 kts 177°
2026-04-08 14:24 45.39035 8.75421 35137 ft 456 kts 177°
2026-04-08 14:24 45.32720 8.76202 35136 ft 455 kts 177°
2026-04-08 14:25 45.26409 8.76837 35152 ft 455 kts 178°
2026-04-08 14:25 45.20090 8.77363 35164 ft 454 kts 178°
2026-04-08 14:26 45.13781 8.77897 35165 ft 453 kts 178°
2026-04-08 14:26 45.07492 8.78477 35170 ft 453 kts 178°
2026-04-08 14:27 45.01180 8.79068 35168 ft 453 kts 178°
2026-04-08 14:27 44.94941 8.79637 35139 ft 452 kts 178°
2026-04-08 14:28 44.88650 8.80212 35141 ft 454 kts 178°
2026-04-08 14:28 44.82343 8.80777 35141 ft 454 kts 178°
2026-04-08 14:29 44.76041 8.81296 35151 ft 453 kts 180°
2026-04-08 14:29 44.69743 8.81330 35167 ft 452 kts 183°
2026-04-08 14:30 44.63445 8.81091 35177 ft 452 kts 183°
2026-04-08 14:30 44.57151 8.80916 35186 ft 452 kts 182°
2026-04-08 14:31 44.50904 8.80838 35195 ft 452 kts 182°
2026-04-08 14:31 44.44607 8.80780 35192 ft 452 kts 182°
2026-04-08 14:32 44.38318 8.80708 35193 ft 452 kts 182°
2026-04-08 14:32 44.32037 8.80620 35193 ft 452 kts 182°
2026-04-08 14:33 44.25752 8.80526 35193 ft 451 kts 182°
2026-04-08 14:33 44.19473 8.80468 35195 ft 451 kts 179°
2026-04-08 14:33 44.16361 8.80990 35196 ft 452 kts 168°
2026-04-08 14:34 44.13332 8.82253 35194 ft 454 kts 158°
2026-04-08 14:34 44.07948 8.86783 35191 ft 455 kts 140°
2026-04-08 14:35 44.03103 8.92449 35188 ft 455 kts 140°
2026-04-08 14:35 43.98119 8.97753 35191 ft 454 kts 151°
2026-04-08 14:35 43.95259 8.99599 35192 ft 453 kts 162°
2026-04-08 14:36 43.92217 9.00711 35195 ft 451 kts 172°
2026-04-08 14:36 43.85982 9.00661 35197 ft 448 kts 191°
2026-04-08 14:37 43.79861 8.99312 34872 ft 438 kts 190°
2026-04-08 14:37 43.76863 8.98656 34629 ft 434 kts 190°
2026-04-08 14:37 43.73883 8.98008 34397 ft 438 kts 190°
2026-04-08 14:37 43.70813 8.97346 34153 ft 452 kts 190°
2026-04-08 14:38 43.67680 8.96670 33668 ft 459 kts 190°
2026-04-08 14:38 43.65574 8.96215 33291 ft 462 kts 189°
2026-04-08 14:38 43.62373 8.95831 32733 ft 464 kts 181°
2026-04-08 14:38 43.59133 8.95830 32120 ft 467 kts 180°
2026-04-08 14:39 43.55881 8.95834 31525 ft 469 kts 180°
2026-04-08 14:39 43.52612 8.95836 30928 ft 470 kts 180°
2026-04-08 14:39 43.49334 8.95836 30342 ft 472 kts 180°
2026-04-08 14:39 43.46039 8.95834 29702 ft 474 kts 180°
2026-04-08 14:40 43.42740 8.95801 28790 ft 478 kts 180°
2026-04-08 14:40 43.39391 8.95629 27574 ft 484 kts 187°
2026-04-08 14:40 43.36126 8.94566 27172 ft 481 kts 198°
2026-04-08 14:40 43.32927 8.93175 26914 ft 483 kts 197°
2026-04-08 14:41 43.29718 8.91793 26660 ft 484 kts 197°
2026-04-08 14:41 43.26505 8.90401 26411 ft 484 kts 197°
2026-04-08 14:41 43.23286 8.88986 26161 ft 484 kts 198°
2026-04-08 14:41 43.20079 8.87563 25914 ft 485 kts 198°
2026-04-08 14:42 43.16916 8.86151 25619 ft 486 kts 198°
2026-04-08 14:42 43.13690 8.84710 25034 ft 487 kts 198°
2026-04-08 14:42 43.10488 8.83287 24418 ft 481 kts 197°
2026-04-08 14:42 43.07318 8.81882 23814 ft 476 kts 197°
2026-04-08 14:43 43.04184 8.80498 23144 ft 471 kts 197°
2026-04-08 14:43 43.01071 8.79121 22569 ft 468 kts 197°
2026-04-08 14:43 42.97988 8.77756 21984 ft 464 kts 197°
2026-04-08 14:43 42.94929 8.76406 21413 ft 460 kts 198°
2026-04-08 14:44 42.91891 8.75070 20857 ft 457 kts 198°
2026-04-08 14:44 42.88869 8.73742 20291 ft 453 kts 198°
2026-04-08 14:44 42.85922 8.72446 19743 ft 449 kts 198°
2026-04-08 14:44 42.82957 8.71144 19195 ft 446 kts 198°
2026-04-08 14:45 42.80017 8.69858 18711 ft 440 kts 198°
2026-04-08 14:45 42.77166 8.68613 18568 ft 415 kts 198°
2026-04-08 14:45 42.74514 8.67454 18432 ft 386 kts 198°
2026-04-08 14:45 42.72023 8.66363 17996 ft 369 kts 198°
2026-04-08 14:46 42.69602 8.65303 17307 ft 361 kts 198°
2026-04-08 14:46 42.67249 8.64279 16587 ft 355 kts 198°
2026-04-08 14:46 42.64913 8.63265 15908 ft 349 kts 198°
2026-04-08 14:46 42.62604 8.62262 15470 ft 348 kts 198°
2026-04-08 14:47 42.60305 8.61262 15061 ft 346 kts 198°
2026-04-08 14:47 42.58020 8.60269 14706 ft 343 kts 198°
2026-04-08 14:47 42.55752 8.59281 14361 ft 340 kts 198°
2026-04-08 14:47 42.53499 8.58298 14000 ft 338 kts 198°
2026-04-08 14:48 42.51262 8.57321 13531 ft 337 kts 198°
2026-04-08 14:48 42.49040 8.56351 13098 ft 336 kts 198°
2026-04-08 14:48 42.46834 8.55392 12743 ft 332 kts 198°
2026-04-08 14:48 42.44627 8.54439 12342 ft 330 kts 198°
2026-04-08 14:49 42.42439 8.53497 11905 ft 329 kts 198°
2026-04-08 14:49 42.40266 8.52563 11471 ft 329 kts 198°
2026-04-08 14:49 42.38104 8.51631 11107 ft 325 kts 198°
2026-04-08 14:49 42.35950 8.50702 10758 ft 322 kts 198°
2026-04-08 14:50 42.33845 8.49797 10606 ft 312 kts 198°
2026-04-08 14:50 42.31810 8.48919 10423 ft 304 kts 198°
2026-04-08 14:50 42.29803 8.48051 10111 ft 301 kts 198°
2026-04-08 14:50 42.27811 8.47192 9746 ft 299 kts 199°
2026-04-08 14:51 42.25832 8.46338 9371 ft 297 kts 199°
2026-04-08 14:51 42.23859 8.45541 8991 ft 295 kts 192°
2026-04-08 14:51 42.21846 8.45379 8623 ft 294 kts 174°
2026-04-08 14:51 42.19869 8.46039 8243 ft 293 kts 157°
2026-04-08 14:52 42.18084 8.47343 7849 ft 291 kts 150°
2026-04-08 14:52 42.16332 8.48717 7459 ft 290 kts 148°
2026-04-08 14:52 42.14737 8.50360 7078 ft 288 kts 140°
2026-04-08 14:52 42.13192 8.52098 6450 ft 287 kts 140°
2026-04-08 14:53 42.11699 8.53772 6123 ft 271 kts 140°
2026-04-08 14:53 42.10291 8.55351 5846 ft 256 kts 140°
2026-04-08 14:53 42.08959 8.56847 5571 ft 242 kts 141°
2026-04-08 14:53 42.07680 8.58283 5297 ft 236 kts 140°
2026-04-08 14:54 42.06421 8.59698 4962 ft 235 kts 141°
2026-04-08 14:54 42.05163 8.61112 4618 ft 237 kts 141°
2026-04-08 14:54 42.03907 8.62523 4263 ft 239 kts 141°
2026-04-08 14:54 42.02626 8.63961 3944 ft 239 kts 141°
2026-04-08 14:55 42.01465 8.65515 3773 ft 233 kts 126°
2026-04-08 14:55 42.00722 8.67422 3597 ft 229 kts 108°
2026-04-08 14:55 42.00390 8.69505 3391 ft 227 kts 99°
2026-04-08 14:55 42.00126 8.71560 3184 ft 217 kts 100°
2026-04-08 14:56 41.99873 8.73505 3042 ft 205 kts 100°
2026-04-08 14:56 41.99631 8.75357 2710 ft 201 kts 101°
2026-04-08 14:56 41.99400 8.77155 2451 ft 188 kts 100°
2026-04-08 14:56 41.99208 8.78827 2236 ft 174 kts 98°
2026-04-08 14:57 41.99052 8.80384 1948 ft 161 kts 101°
2026-04-08 14:57 41.98839 8.81814 1709 ft 151 kts 117°
2026-04-08 14:57 41.98181 8.82778 1401 ft 140 kts 159°
2026-04-08 14:57 41.97229 8.82900 1085 ft 135 kts 191°
2026-04-08 14:58 41.96316 8.82612 866 ft 138 kts 201°
2026-04-08 14:58 41.95421 8.82147 634 ft 134 kts 206°
2026-04-08 14:58 41.94590 8.81634 464 ft 133 kts 207°
2026-04-08 14:58 41.93753 8.81094 245 ft 132 kts 206°
2026-04-08 14:59 41.92926 8.80583 49 ft 130 kts 206°
2026-04-08 14:59 41.92200 8.80126 19 ft 93 kts 205°
2026-04-08 14:59 41.91765 8.79859 17 ft 50 kts 205°
2026-04-08 14:59 41.91479 8.79679 17 ft 41 kts 205°
2026-04-08 15:00 41.91276 8.79553 22 ft 15 kts 205°
2026-04-08 15:00 41.91240 8.79443 23 ft 9 kts 287°
2026-04-08 15:00 41.91283 8.79405 23 ft 7 kts 333°
2026-04-08 15:00 41.91318 8.79382 24 ft 3 kts 333°
2026-04-08 15:01 41.91323 8.79378 25 ft 1 kts 333°
2026-04-08 15:01 41.91350 8.79360 26 ft 8 kts 334°
2026-04-08 15:01 41.91430 8.79332 28 ft 13 kts 359°
2026-04-08 15:01 41.91511 8.79366 27 ft 12 kts 24°
2026-04-08 15:02 41.91581 8.79409 29 ft 11 kts 25°
2026-04-08 15:02 41.91645 8.79449 28 ft 10 kts 25°
2026-04-08 15:02 41.91702 8.79485 28 ft 9 kts 25°
2026-04-08 15:02 41.91805 8.79549 30 ft 17 kts 24°
2026-04-08 15:03 41.91867 8.79580 29 ft 5 kts 355°
2026-04-08 15:03 41.91882 8.79554 28 ft 3 kts 294°
2026-04-08 15:03 41.91893 8.79543 28 ft 1 kts 334°
2026-04-08 15:03 41.91900 8.79542 28 ft 0 kts 348°
2026-04-08 15:24 41.95068 8.81934 546 ft 118 kts 206°